Cheboygan, MI

5:09 AM EDT on May 28, 2017 (GMT -0400)
Cheboygan

Weather History for KSLH - November, 2013

Change the Weather History Date:

Thursday, November 14, 2013

  Actual Average (KMCD) Record (KMCD)
Temperature  
Mean Temperature 42 °F -  
Max Temperature 47 °F 40 °F 54 °F (2016)
Min Temperature 38 °F 31 °F 14 °F (1996)
Degree Days  
Heating Degree Days 22    
Moisture  
Dew Point 31 °F    
Average Humidity 62    
Maximum Humidity 78    
Minimum Humidity 55    
Precipitation  
Precipitation 0.00 in - - ()
Sea Level Pressure  
Sea Level Pressure 29.82 in    
Wind  
Wind Speed 13 mph (SW)    
Max Wind Speed 23 mph    
Max Gust Speed 33 mph    
Visibility 10 miles    
Events Rain    
Averages and records for this station are not official NWS values.
T = Trace of Precipitation, MM = Missing Value Source: NWS Daily Summary

Daily Weather History Graph

Daily Weather History Graph

Search for Another Location

Airport or City:

Trip Planner

Search our weather history database for the weather conditions in past years. The results will help you decide how hot, cold, wet, or windy it might be!

Date:

Astronomy

Nov. 14, 2013 Rise Set
Actual Time 7:36 AM EST 5:08 PM EST
Civil Twilight 7:04 AM EST 5:40 PM EST
Nautical Twilight 6:28 AM EST 6:16 PM EST
Astronomical Twilight 5:53 AM EST 6:51 PM EST
Moon 3:35 PM EST (11/14) 4:22 AM EST (11/14)
Length of Visible Light 10h 35m
Length of Day
9h 31m
Waxing Gibbous, 91% of the Moon is Illuminated
Nov 14
Waxing Gibbous
Nov 17
Full
Nov 25
Last Quarter
Dec 2
New
Dec 9
First Quarter

Hourly Weather History & Observations

Time (EST) Temp. Windchill Dew Point Humidity Pressure Visibility Wind Dir Wind Speed Gust Speed Precip Events Conditions
12:16 AM 43.0 °F 35.1 °F 30.0 °F 60% 29.85 in 10.0 mi WSW 17.3 mph 28.8 mph N/A   Clear
12:36 AM 42.8 °F 34.8 °F 29.7 °F 60% 29.85 in 10.0 mi WSW 17.3 mph 29.9 mph N/A   Clear
12:56 AM 42.8 °F 34.3 °F 29.1 °F 58% 29.85 in 10.0 mi WSW 19.6 mph 28.8 mph N/A   Clear
1:16 AM 42.6 °F 33.8 °F 28.4 °F 57% 29.84 in 10.0 mi WSW 20.7 mph 28.8 mph N/A   Clear
1:36 AM 42.8 °F 33.5 °F 28.4 °F 57% 29.83 in 10.0 mi WSW 23.0 mph 33.4 mph N/A   Clear
1:56 AM 42.6 °F 33.8 °F 27.9 °F 56% 29.83 in 10.0 mi WSW 20.7 mph 29.9 mph N/A   Clear
2:16 AM 42.3 °F 34.8 °F 28.0 °F 57% 29.84 in 10.0 mi WSW 15.0 mph 25.3 mph N/A   Clear
2:36 AM 42.3 °F 35.1 °F 28.4 °F 58% 29.84 in 10.0 mi SW 13.8 mph 27.6 mph N/A   Clear
2:56 AM 42.6 °F 34.9 °F 28.4 °F 57% 29.84 in 10.0 mi WSW 16.1 mph 27.6 mph N/A   Clear
3:16 AM 42.3 °F 35.1 °F 28.4 °F 58% 29.84 in 10.0 mi WSW 13.8 mph 24.2 mph N/A   Clear
3:36 AM 42.1 °F 36.1 °F 28.8 °F 59% 29.84 in 10.0 mi SW 10.4 mph 26.5 mph N/A   Clear
3:56 AM 41.9 °F 34.6 °F 28.8 °F 60% 29.84 in 10.0 mi SW 13.8 mph 21.9 mph N/A   Clear
4:16 AM 41.4 °F 36.2 °F 28.9 °F 61% 29.84 in 10.0 mi SW 8.1 mph - N/A   Clear
4:36 AM 39.9 °F 35.1 °F 28.8 °F 64% 29.83 in 10.0 mi SSW 6.9 mph - N/A   Clear
4:57 AM 39.9 °F 33.4 °F 28.4 °F 63% 29.83 in 10.0 mi SSW 10.4 mph - N/A   Clear
5:16 AM 39.9 °F 33.4 °F 28.4 °F 63% 29.83 in 10.0 mi SSW 10.4 mph - N/A   Clear
5:36 AM 39.4 °F 32.3 °F 28.4 °F 65% 29.83 in 10.0 mi SW 11.5 mph - N/A   Clear
5:57 AM 39.4 °F 32.3 °F 28.6 °F 65% 29.83 in 10.0 mi SW 11.5 mph - N/A   Clear
6:16 AM 39.2 °F 32.0 °F 28.4 °F 65% 29.83 in 10.0 mi SW 11.5 mph 16.1 mph N/A   Clear
6:36 AM 39.2 °F 33.6 °F 28.4 °F 65% 29.83 in 10.0 mi SW 8.1 mph - N/A   Clear
6:56 AM 39.2 °F 33.6 °F 28.4 °F 65% 29.83 in 10.0 mi SW 8.1 mph - N/A   Clear
7:16 AM 38.8 °F 32.6 °F 28.4 °F 66% 29.83 in 10.0 mi SW 9.2 mph - N/A   Clear
7:37 AM 39.4 °F 34.5 °F 28.8 °F 66% 29.84 in 10.0 mi SW 6.9 mph - N/A   Clear
7:56 AM 39.4 °F 35.2 °F 28.8 °F 66% 29.84 in 10.0 mi South 5.8 mph - N/A   Clear
8:16 AM 39.2 °F 35.0 °F 28.8 °F 66% 29.84 in 10.0 mi SSW 5.8 mph - N/A   Clear
8:36 AM 39.7 °F 35.6 °F 28.9 °F 65% 29.83 in 10.0 mi SSW 5.8 mph - N/A   Clear
8:56 AM 40.5 °F 34.6 °F 29.1 °F 64% 29.84 in 10.0 mi SSW 9.2 mph - N/A   Clear
9:16 AM 41.9 °F 36.9 °F 29.7 °F 62% 29.84 in 10.0 mi SSW 8.1 mph - N/A   Clear
9:36 AM 43.3 °F 35.8 °F 30.7 °F 61% 29.84 in 10.0 mi SW 16.1 mph 21.9 mph N/A   Clear
9:56 AM 43.5 °F 36.4 °F 31.1 °F 62% 29.83 in 10.0 mi SW 15.0 mph 20.7 mph N/A   Clear
10:16 AM 45.5 °F 39.9 °F 31.8 °F 59% 29.83 in 10.0 mi WSW 11.5 mph 19.6 mph N/A   Clear
10:36 AM 45.7 °F 39.5 °F 32.0 °F 59% 29.83 in 10.0 mi WSW 13.8 mph 19.6 mph N/A   Clear
10:56 AM 45.7 °F 38.8 °F 32.0 °F 59% 29.83 in 10.0 mi SW 16.1 mph 23.0 mph N/A   Clear
11:16 AM 46.4 °F 41.5 °F 32.4 °F 58% 29.84 in 10.0 mi SW 10.4 mph 21.9 mph N/A   Clear
11:36 AM 46.4 °F 39.5 °F 32.2 °F 58% 29.83 in 10.0 mi WSW 17.3 mph 25.3 mph N/A   Clear
11:56 AM 46.9 °F - 32.4 °F 57% 29.82 in 10.0 mi SW 18.4 mph 27.6 mph N/A   Clear
12:16 PM 46.8 °F - 32.5 °F 58% 29.81 in 10.0 mi SSW 13.8 mph 20.7 mph N/A   Clear
12:36 PM 47.5 °F - 32.4 °F 56% 29.80 in 10.0 mi WSW 16.1 mph 24.2 mph N/A   Clear
12:56 PM 46.6 °F - 32.2 °F 57% 29.80 in 10.0 mi SW 15.0 mph 18.4 mph N/A   Clear
1:16 PM 47.3 °F - 32.4 °F 56% 29.80 in 10.0 mi SW 13.8 mph 19.6 mph N/A   Clear
1:36 PM 47.5 °F - 32.2 °F 55% 29.80 in 10.0 mi WSW 16.1 mph 24.2 mph N/A   Clear
1:56 PM 47.3 °F - 32.4 °F 56% 29.79 in 10.0 mi SW 12.7 mph 21.9 mph N/A   Clear
2:16 PM 46.9 °F - 32.0 °F 56% 29.79 in 10.0 mi WSW 15.0 mph 25.3 mph N/A   Clear
2:36 PM 47.3 °F - 32.0 °F 55% 29.79 in 10.0 mi SW 11.5 mph 17.3 mph N/A   Clear
2:56 PM 46.8 °F - 31.5 °F 55% 29.78 in 10.0 mi SSW 11.5 mph 18.4 mph N/A   Clear
3:16 PM 46.6 °F - 31.5 °F 56% 29.78 in 10.0 mi SSW 9.2 mph - N/A   Scattered Clouds
3:37 PM 45.9 °F 40.4 °F 31.3 °F 57% 29.78 in 10.0 mi SSW 11.5 mph 19.6 mph N/A   Scattered Clouds
3:56 PM 45.7 °F 40.6 °F 31.1 °F 57% 29.79 in 10.0 mi SW 10.4 mph - N/A   Scattered Clouds
4:16 PM 45.5 °F 41.8 °F 31.3 °F 58% 29.80 in 10.0 mi SW 6.9 mph 16.1 mph N/A   Mostly Cloudy
4:36 PM 45.5 °F 41.3 °F 31.5 °F 58% 29.80 in 10.0 mi WSW 8.1 mph - N/A   Mostly Cloudy
4:56 PM 45.5 °F 42.5 °F 31.5 °F 58% 29.80 in 10.0 mi WSW 5.8 mph - N/A   Mostly Cloudy
5:16 PM 45.1 °F 42.8 °F 31.6 °F 59% 29.81 in 10.0 mi WSW 4.6 mph - N/A   Mostly Cloudy
5:36 PM 44.8 °F 40.4 °F 31.5 °F 60% 29.81 in 10.0 mi West 8.1 mph - N/A   Mostly Cloudy
5:56 PM 44.8 °F 41.0 °F 31.6 °F 60% 29.82 in 10.0 mi WSW 6.9 mph - N/A   Mostly Cloudy
6:16 PM 44.6 °F 41.4 °F 32.0 °F 61% 29.83 in 10.0 mi WSW 5.8 mph - N/A   Scattered Clouds
6:36 PM 44.6 °F 39.7 °F 32.2 °F 62% 29.83 in 10.0 mi West 9.2 mph - N/A   Mostly Cloudy
6:56 PM 44.6 °F 39.7 °F 32.5 °F 63% 29.83 in 10.0 mi WSW 9.2 mph 19.6 mph N/A   Overcast
7:16 PM 43.5 °F 37.9 °F 34.2 °F 70% 29.82 in 10.0 mi SW 10.4 mph 19.6 mph N/A Rain Light Rain
7:36 PM 42.1 °F 37.7 °F 35.6 °F 78% 29.81 in 7.0 mi SSW 6.9 mph - N/A Rain Light Rain
7:56 PM 41.9 °F 36.3 °F 35.2 °F 77% 29.81 in 10.0 mi SW 9.2 mph - N/A   Mostly Cloudy
8:16 PM 41.9 °F 35.9 °F 34.2 °F 74% 29.81 in 10.0 mi SSW 10.4 mph - N/A   Mostly Cloudy
8:36 PM 41.9 °F 35.4 °F 33.4 °F 72% 29.80 in 10.0 mi SSW 11.5 mph - N/A   Scattered Clouds
8:56 PM 41.9 °F 35.4 °F 33.3 °F 71% 29.81 in 10.0 mi SW 11.5 mph 17.3 mph N/A   Mostly Cloudy
9:16 PM 41.9 °F 35.9 °F 33.1 °F 71% 29.82 in 10.0 mi SW 10.4 mph - N/A   Overcast
9:36 PM 41.9 °F 36.3 °F 33.1 °F 71% 29.82 in 10.0 mi SW 9.2 mph - N/A   Scattered Clouds
9:56 PM 41.9 °F 35.9 °F 33.1 °F 71% 29.83 in 10.0 mi SW 10.4 mph - N/A   Clear
10:16 PM 41.9 °F 35.9 °F 33.3 °F 71% 29.83 in 10.0 mi SW 10.4 mph - N/A   Clear
10:36 PM 41.9 °F 36.9 °F 33.3 °F 71% 29.83 in 10.0 mi SSW 8.1 mph - N/A   Scattered Clouds
10:56 PM 41.9 °F 37.5 °F 33.1 °F 71% 29.83 in 10.0 mi SSW 6.9 mph - N/A   Mostly Cloudy
11:16 PM 42.1 °F 38.4 °F 33.3 °F 71% 29.83 in 10.0 mi SSW 5.8 mph - N/A   Overcast
11:36 PM 42.6 °F 38.4 °F 33.8 °F 71% 29.83 in 10.0 mi SSW 6.9 mph - N/A   Overcast
11:56 PM 43.0 °F 40.3 °F 34.2 °F 71% 29.83 in 10.0 mi SSW 4.6 mph - N/A   Overcast